This demonstration page uses our WeatherBlox Daily Observations layout. Learn more.

38.89511, -77.03637

Hourly Observations for December 3, 2018

Temp ( °F °C ) Dew Point ( °F °C ) Humidity (%) Winds ( mph kmh ) Pressure ( in mb ) Visibility ( mi km ) Precip ( " mm )
12:00 am 00:00 Cloudy with Mist and Fog 57 13.9 55 12.8 93 93 SSW 8 13 29.65 1004 3 4.828032 0 0
12:24 am 00:24 Mostly Clear 56 13.3 54 12.2 93 93 SSW 7 11 29.65 1004 8 12.874752 0 0
12:52 am 00:52 Mostly Clear 53 11.7 52 11.1 96 96 S 5 7 29.62 1003 7 11.265408 0 0
1:52 am 01:52 Clear 52 11.1 50 10 93 93 SSW 7 11 29.65 1004 8 12.874752 0 0
2:52 am 02:52 Clear 53 11.7 51 10.6 93 93 SSW 5 7 29.65 1004 8 12.874752 0 0
3:52 am 03:52 Mostly Cloudy 54 12.2 51 10.6 90 90 SW 12 19 29.65 1004 8 12.874752 0 0
4:52 am 04:52 Clear 55 12.8 50 10 83 83 WSW 9 15 29.65 1004 10 16.09344 0 0
6:52 am 06:52 Mostly Cloudy 55 12.8 43 6.1 64 64 WNW 9 15 29.71 1006 10 16.09344 0 0
7:52 am 07:52 Mostly Cloudy 54 12.2 41 5 62 62 N 5 7 29.71 1006 10 16.09344 0 0
8:52 am 08:52 Mostly Cloudy 51 10.6 43 6.1 74 74 S 8 13 29.74 1007 10 16.09344 0 0
9:52 am 09:52 Mostly Cloudy 53 11.7 44 6.7 72 72 Calm 29.77 1008 10 16.09344 0 0
10:52 am 10:52 Partly Cloudy 59 15 40 4.4 49 49 WNW 10 17 29.77 1008 10 16.09344 0 0
11:52 am 11:52 Partly Cloudy 61 16.1 38 3.3 43 43 NW 10 17 29.74 1007 10 16.09344 0 0
12:52 pm 12:52 Partly Cloudy 62 16.7 36 2.2 38 38 NW 10 17 29.71 1006 10 16.09344 0 0
1:52 pm 13:52 Mostly Cloudy 61 16.1 36 2.2 39 39 NW 9 15 29.71 1006 10 16.09344 0 0
2:52 pm 14:52 Mostly Cloudy 58 14.4 38 3.3 48 48 NNW 14 22 29.74 1007 10 16.09344 0 0
3:52 pm 15:52 Mostly Cloudy 56 13.3 37 2.8 49 49 NNW 14 22 29.77 1008 10 16.09344 0 0
4:52 pm 16:52 Mostly Cloudy 54 12.2 36 2.2 51 51 NW 15 24 29.8 1009 10 16.09344 0 0
5:52 pm 17:52 Mostly Cloudy 51 10.6 35 1.7 54 54 NNW 15 24 29.83 1010 10 16.09344 0 0
6:52 pm 18:52 Mostly Cloudy 50 10 32 0 50 50 NW 12 19 29.85 1011 10 16.09344 0 0
7:52 pm 19:52 Mostly Cloudy 50 10 30 -1.1 46 46 WNW 6 9 29.83 1010 10 16.09344 0 0
8:52 pm 20:52 Mostly Cloudy 50 10 30 -1.1 46 46 NW 14 22 29.83 1010 10 16.09344 0 0
9:52 pm 21:52 Mostly Cloudy 48 8.9 31 -0.6 52 52 NNW 13 20 29.83 1010 10 16.09344 0 0
10:52 pm 22:52 Mostly Cloudy 48 8.9 31 -0.6 52 52 NW 8 13 29.85 1011 10 16.09344 0 0
11:52 pm 23:52 Mostly Cloudy 48 8.9 32 0 54 54 NW 15 24 29.85 1011 10 16.09344 0 0

Powered by AerisWeather